GFSSGP_500_spd_000.txt.gz
Wind_Speed
11 11 10 12 17 18 18 20 19 14 17 24 26 27 29 28 29 38 40 38 36 37 37 37 37 37 36 34 34 33 31 31 30 31 31 31 32 32 33 34 35 35 35 37 36 35 34 35 35
16 16 15 20 25 25 26 19 24 22 23 24 26 24 28 32 31 35 32 34 34 33 33 36 38 38 36 34 33 32 31 30 31 31 31 32 33 34 37 38 38 37 37 37 37 36 36 36 36
18 19 19 23 25 22 20 20 19 16 23 25 29 33 33 31 31 28 30 32 34 35 37 37 37 39 38 36 35 34 32 31 32 32 34 34 35 36 38 40 42 41 38 37 34 33 35 36 37
20 22 31 24 31 20 20 21 23 19 23 24 28 35 34 28 29 30 31 34 35 35 36 36 38 39 40 36 33 33 32 32 34 34 35 34 36 38 40 40 40 42 40 36 33 34 35 36 36
24 33 26 28 18 18 22 26 21 24 25 26 29 34 33 34 32 28 29 29 31 34 36 40 35 32 31 28 29 30 30 35 37 35 35 35 38 40 43 43 39 38 38 38 40 40 39 38 37
32 32 32 26 19 21 23 29 24 23 29 30 33 31 34 35 35 32 31 28 31 31 30 29 31 30 29 28 27 30 33 36 34 34 34 38 39 41 41 38 39 42 43 43 44 44 43 41 41
37 37 34 27 24 19 25 27 27 32 30 26 28 34 33 31 32 31 31 28 29 23 24 26 28 30 30 28 28 31 36 38 39 35 36 38 37 37 37 38 40 44 45 45 43 43 43 43 43
38 43 35 28 31 23 27 33 32 36 35 33 33 32 31 33 27 29 28 26 26 21 27 30 37 36 35 31 32 32 34 37 38 35 35 35 35 35 36 40 40 40 40 40 42 42 42 43 42
46 48 32 28 29 32 28 35 31 32 35 36 37 38 34 36 23 23 25 26 24 20 25 29 35 35 34 35 34 33 32 33 33 34 32 33 33 36 40 40 41 44 40 40 41 42 41 42 43
44 44 37 36 33 35 37 39 39 27 26 30 38 43 43 38 23 23 23 23 21 23 26 28 32 32 33 34 35 33 32 32 33 30 30 28 32 34 37 37 36 38 39 36 37 38 39 40 42
43 49 42 42 43 42 43 42 32 22 25 28 30 35 35 29 22 22 22 24 26 26 27 30 31 32 35 34 32 32 30 32 31 29 28 28 27 31 34 36 38 38 33 35 33 32 33 35 39
51 48 47 43 42 45 38 33 19 22 24 25 31 35 28 20 17 20 23 26 29 29 32 33 33 37 37 33 32 30 32 31 30 31 27 26 31 36 32 35 32 29 30 28 27 26 25 29 35
51 47 52 49 44 34 31 25 18 16 20 24 31 30 22 21 19 20 23 27 34 34 32 33 35 36 35 31 28 30 30 30 30 25 25 30 32 34 31 33 27 23 22 23 26 27 28 29 31
50 50 46 42 27 24 27 18 22 12 19 22 25 23 20 21 23 21 22 24 29 31 32 32 33 35 32 28 28 31 29 31 28 28 28 29 30 29 31 30 20 18 23 24 25 29 30 30 31
48 43 26 23 18 15 22 20 11 14 20 16 17 22 18 19 21 20 17 18 26 30 31 29 32 32 30 27 29 30 30 29 31 29 28 25 27 28 32 24 18 20 23 25 25 28 29 28 31
43 29 18 13 17 8 21 10 14 13 14 11 18 26 27 27 26 21 15 21 27 31 29 27 31 29 26 26 28 29 28 29 28 23 22 23 27 28 26 19 17 21 21 20 20 23 26 26 30
33 26 20 14 13 15 22 14 11 15 17 14 22 23 30 27 28 22 19 27 33 35 27 27 30 27 24 26 27 28 27 27 25 23 21 22 26 24 23 18 18 18 15 12 14 20 24 24 30
28 27 21 19 14 19 18 17 13 15 15 17 18 21 26 28 25 22 23 29 32 31 25 26 27 23 24 27 25 27 27 28 26 23 22 22 24 24 21 16 16 15 10 9 15 17 21 26 28
32 30 24 15 18 24 21 25 15 13 21 18 20 21 21 17 15 24 29 27 29 26 23 25 25 24 25 26 25 26 24 26 21 23 21 19 22 21 20 14 15 12 8 9 15 16 25 28 28
34 30 28 18 20 27 22 24 17 13 23 24 20 21 21 22 20 24 30 29 27 23 22 25 25 24 26 24 25 25 24 24 26 25 18 16 19 20 18 10 11 8 5 4 18 22 27 26 28
33 33 22 22 19 27 23 23 21 18 21 23 19 19 21 21 26 30 31 31 23 20 24 25 23 23 24 22 24 22 23 24 22 20 14 16 19 20 13 6 6 4 4 13 19 24 25 27 30
39 28 22 23 23 26 23 24 23 20 19 21 17 19 17 20 28 30 36 26 18 20 23 21 21 21 20 20 21 20 23 25 19 17 18 19 20 15 7 3 2 5 10 17 20 21 24 27 30
38 28 24 21 26 20 25 27 8 10 14 13 12 10 15 19 25 31 23 15 16 20 18 20 19 18 17 20 17 18 21 20 19 19 23 23 13 10 4 1 4 9 14 19 17 21 24 29 27
30 33 28 29 29 31 16 15 3 8 12 10 10 13 17 21 21 17 15 13 16 18 17 19 17 14 16 18 14 17 20 18 23 22 17 18 10 8 4 5 8 12 18 19 18 21 25 27 25
39 38 37 35 36 17 12 13 1 8 11 9 10 15 17 25 17 17 15 14 15 16 19 16 14 14 15 13 12 14 19 18 23 20 16 15 9 7 8 9 10 14 18 21 21 25 22 25 24
45 38 40 37 27 15 15 17 2 8 11 6 11 16 17 27 13 13 12 13 13 13 16 14 12 11 13 7 10 14 18 18 20 16 13 12 7 6 12 14 14 15 17 19 24 20 22 27 22
39 37 26 28 21 26 16 16 13 12 12 5 11 15 16 15 13 15 10 13 11 16 12 11 9 9 11 8 11 13 14 16 18 14 12 10 7 7 15 15 15 15 17 22 24 18 24 22 21
35 31 36 32 28 25 19 18 15 11 14 9 11 13 15 20 14 15 11 10 12 10 9 9 6 8 10 7 9 9 12 15 14 15 14 10 9 10 16 16 16 16 17 20 23 27 17 19 28
37 41 37 28 27 25 17 14 7 13 20 16 14 16 16 23 12 11 7 7 10 6 7 7 5 7 8 7 7 8 10 14 18 13 14 13 12 13 17 15 15 16 18 20 20 22 22 24 25
29 33 33 31 31 28 22 14 18 16 11 9 13 14 19 22 7 9 5 8 6 5 6 5 5 5 9 9 8 11 12 13 19 14 15 16 14 14 16 17 18 18 18 18 20 21 21 24 23

GFSSGP_500_spd_003.txt.gz
Wind_Speed
9 10 10 12 14 18 21 26 24 24 23 24 26 24 20 21 23 29 34 39 37 35 36 36 39 39 39 38 36 35 34 31 29 29 29 29 29 30 30 30 31 31 30 30 30 30 29 30 31
13 15 16 17 20 27 27 22 25 23 26 26 26 23 21 19 24 29 31 30 29 31 33 35 37 38 38 38 38 38 35 32 30 30 29 30 31 32 32 32 33 33 32 32 32 32 32 32 33
17 19 19 18 28 26 25 22 24 25 25 27 32 28 22 23 25 28 28 27 29 29 31 33 35 36 38 39 38 37 36 33 31 29 29 31 34 35 36 36 34 35 34 34 33 35 35 34 34
23 23 22 21 24 27 20 24 27 25 31 34 32 33 29 26 30 29 27 28 28 29 31 32 33 33 34 33 35 33 31 33 31 30 29 34 37 37 36 36 37 38 37 35 35 33 34 34 32
23 25 26 28 27 26 23 30 33 31 31 33 38 32 29 29 34 32 29 27 28 29 30 28 29 28 30 28 27 29 29 30 31 31 34 36 37 38 38 39 39 39 38 35 35 35 35 35 37
29 30 33 33 28 25 22 33 36 35 32 33 37 38 33 30 36 30 26 24 30 28 27 28 29 31 32 31 29 30 29 30 30 33 36 37 37 37 39 40 41 39 38 39 40 40 41 41 42
37 41 37 38 31 30 24 32 34 33 35 37 39 37 34 35 30 25 26 27 29 26 25 29 31 33 31 32 34 38 37 38 38 37 37 40 39 39 40 41 40 39 38 39 41 43 44 45 45
35 43 40 39 37 36 27 31 37 38 39 42 44 39 32 33 28 23 25 29 28 25 23 28 31 35 36 37 37 38 38 41 44 43 42 41 39 40 40 38 35 37 38 40 40 41 42 42 43
41 45 39 36 41 32 32 33 32 39 42 39 47 41 34 38 29 28 26 28 26 22 25 30 33 35 38 39 39 37 37 40 41 43 42 40 38 36 33 31 32 35 40 43 43 45 45 45 46
46 42 36 40 38 39 38 42 35 39 44 48 40 36 36 39 32 31 26 24 22 24 27 29 33 35 39 40 40 41 38 37 37 37 38 38 37 34 31 30 33 38 38 40 42 45 45 44 43
48 46 42 44 41 45 44 42 41 42 37 31 31 35 38 30 27 23 25 23 22 27 31 34 37 39 40 41 42 41 36 33 34 35 35 35 34 33 32 34 38 40 36 38 39 39 39 42 42
54 48 45 41 40 43 45 51 44 36 32 27 33 35 28 22 22 23 24 21 23 29 34 38 39 39 39 41 39 36 32 31 34 33 34 32 29 29 32 34 37 37 38 35 34 36 38 39 38
55 48 47 44 42 43 49 47 37 29 24 29 32 25 17 21 24 23 19 19 23 31 34 34 36 36 40 39 36 33 30 32 32 33 29 31 31 30 31 31 32 35 35 30 29 31 32 32 31
51 51 48 45 37 43 35 30 28 12 23 29 28 14 17 23 20 16 17 20 22 27 32 36 38 35 37 37 35 31 31 32 32 31 31 30 30 29 30 33 33 33 28 25 24 26 29 32 31
55 56 51 32 33 21 33 27 23 15 26 23 21 16 19 18 17 19 18 18 19 26 33 34 32 33 37 36 33 30 32 32 32 32 31 27 26 27 28 31 31 28 25 24 25 28 31 32 32
60 57 40 27 32 19 34 14 15 26 24 18 14 15 11 15 19 16 12 14 18 25 32 35 30 31 34 32 30 30 31 33 32 34 31 30 29 26 28 28 29 24 23 24 25 27 31 32 31
63 46 37 29 29 27 35 26 23 23 22 16 12 13 13 15 16 16 14 18 22 26 30 35 29 30 29 29 29 30 31 33 33 32 27 26 29 27 30 28 25 21 22 20 20 22 24 27 29
53 49 45 32 15 28 34 34 24 23 25 18 13 11 13 14 11 13 19 24 27 29 29 31 28 28 29 31 30 29 31 33 30 30 30 31 27 24 24 26 21 19 19 17 16 15 15 20 25
56 52 45 29 18 33 33 31 18 27 28 18 11 12 12 16 12 18 20 25 32 37 33 29 27 29 30 30 29 29 31 30 31 33 29 25 19 21 25 26 18 18 16 13 12 12 15 19 22
54 52 42 29 15 35 31 32 25 26 25 15 11 9 14 17 13 17 23 29 34 40 34 27 27 27 26 27 27 28 29 28 32 26 21 20 21 23 27 22 13 13 11 10 12 12 13 19 21
48 47 32 28 19 35 38 34 27 26 18 11 10 11 14 13 15 18 25 34 40 41 29 25 25 23 25 25 25 27 26 25 26 25 23 25 29 27 24 15 11 10 4 2 13 15 20 22 21
42 28 26 28 27 33 38 43 27 25 12 15 14 16 10 12 13 18 25 30 35 28 22 21 21 24 23 23 24 26 23 24 23 25 25 26 26 17 14 9 6 2 3 8 13 22 21 20 23
26 28 30 28 32 36 35 41 15 19 12 16 18 10 9 8 12 17 21 24 21 20 20 20 22 22 22 22 24 23 21 22 22 25 23 21 21 17 9 4 2 5 9 13 15 18 20 23 25
34 33 32 33 37 47 31 38 9 16 18 14 4 7 11 8 14 22 18 18 19 17 18 18 20 20 21 23 22 18 19 21 22 24 20 18 17 11 3 1 3 9 14 14 15 19 22 26 27
39 38 38 41 46 46 26 32 14 16 12 6 5 7 11 9 16 14 14 17 16 15 14 18 19 20 19 20 15 16 19 19 21 19 18 18 14 8 4 5 7 11 16 18 20 23 25 24 27
37 41 44 47 48 37 28 24 13 17 8 5 4 7 7 10 12 13 14 13 12 11 15 17 17 16 18 17 14 17 18 16 21 16 17 16 10 4 7 9 12 15 17 21 25 23 21 20 22
38 48 41 41 37 39 35 21 23 10 4 2 4 4 7 13 18 17 14 13 12 11 15 15 16 15 18 16 14 16 13 16 17 13 16 9 8 9 10 12 13 18 19 21 29 21 21 19 21
40 45 42 45 43 40 28 24 15 9 5 4 4 4 9 16 19 11 12 12 7 11 11 14 14 14 16 12 11 10 10 17 16 12 8 11 9 11 11 11 11 13 19 25 20 20 21 21 23
42 47 44 42 39 34 25 21 16 11 10 5 2 6 11 15 11 9 11 10 11 9 10 13 11 12 11 11 6 8 9 15 13 12 8 11 10 12 12 12 14 16 20 23 20 22 20 18 17
41 40 36 39 34 30 26 20 20 14 7 5 4 4 16 12 12 9 11 11 12 8 9 11 9 9 9 7 5 7 9 11 11 14 10 10 11 12 12 14 16 18 19 21 23 18 20 19 20

GFSSGP_500_spd_006.txt.gz
Wind_Speed
14 15 16 14 15 18 23 27 25 21 20 22 24 26 25 21 22 27 26 29 32 34 36 36 35 38 38 38 39 38 37 36 36 35 32 31 30 31 31 31 31 32 30 31 30 28 29 29 29
20 20 19 18 18 20 25 27 21 19 22 24 27 26 27 22 25 27 26 29 32 31 33 35 36 36 37 38 39 41 40 39 37 38 38 35 32 32 32 33 32 33 32 34 34 31 29 29 29
22 21 23 25 21 22 26 27 22 22 24 26 29 31 30 29 30 31 32 30 32 33 34 34 34 35 33 32 35 34 32 34 34 32 32 33 34 35 34 34 34 34 34 36 37 35 32 31 31
24 25 27 22 23 26 28 31 30 26 27 30 31 30 26 27 28 29 31 29 30 33 34 33 33 32 33 33 31 30 29 28 30 29 31 32 33 34 34 35 33 34 35 36 37 38 36 35 35
24 26 27 24 23 27 30 31 31 32 33 31 32 32 32 34 34 35 35 29 29 31 34 35 35 35 32 30 31 32 32 31 29 30 32 33 33 35 36 35 33 34 35 37 38 39 39 38 38
28 29 29 27 25 30 31 33 33 40 38 34 36 38 35 37 37 37 35 25 26 30 35 36 37 37 31 30 30 32 31 32 32 32 33 36 38 37 36 37 36 36 37 38 38 39 39 39 38
32 37 34 33 32 35 34 37 37 38 38 39 40 42 39 38 42 39 30 24 26 31 35 37 37 35 31 31 33 35 35 37 38 40 41 42 42 41 41 42 41 40 39 37 37 39 38 39 38
41 41 38 34 25 34 36 36 36 37 35 39 41 43 43 47 50 39 30 26 28 32 35 35 35 34 34 33 35 38 40 39 40 42 42 42 42 42 43 43 42 41 39 37 33 35 37 37 38
34 40 36 30 30 33 34 35 31 39 40 40 42 42 47 48 49 37 28 30 32 31 32 34 36 35 36 36 40 41 41 40 42 43 42 41 39 38 38 39 39 38 35 33 31 34 39 41 41
39 41 37 31 36 36 35 35 38 40 42 39 41 42 41 42 45 32 28 28 29 29 29 35 35 35 38 40 42 42 43 44 42 40 38 37 37 37 38 37 36 36 36 36 38 38 37 39 40
40 43 37 33 37 40 37 33 40 39 43 45 46 39 40 41 38 33 25 25 30 28 32 34 37 36 37 36 38 41 42 38 36 34 35 34 34 35 35 36 37 37 37 39 39 39 37 36 38
47 43 40 38 39 42 37 39 36 42 46 44 38 32 37 35 33 32 25 27 27 30 32 32 37 35 33 38 41 38 39 34 30 31 32 32 32 33 32 32 31 32 33 35 36 37 38 36 37
49 44 46 46 45 42 36 38 42 31 31 30 28 30 32 33 30 28 24 25 28 29 25 29 32 34 34 35 37 38 34 30 30 30 31 32 33 32 30 31 32 33 33 36 36 35 35 34 35
50 51 51 48 47 40 35 42 36 20 30 26 30 29 28 32 32 23 19 25 29 28 25 23 30 38 36 34 36 36 31 29 30 29 33 32 33 31 30 27 27 31 35 35 33 30 30 30 29
58 57 54 51 43 37 41 44 22 29 31 37 32 30 27 34 27 20 15 19 21 19 22 24 31 36 34 33 36 34 32 32 32 32 34 31 33 31 30 32 29 31 31 31 29 27 28 28 29
64 62 60 50 41 41 45 45 26 32 40 38 28 27 23 27 22 18 12 10 14 16 21 26 30 34 33 32 35 35 32 34 33 35 33 32 32 31 31 32 30 30 29 28 26 27 28 29 31
69 64 60 49 43 46 41 44 28 31 40 29 28 28 26 27 21 17 14 14 17 19 24 29 36 34 32 32 35 34 33 34 33 36 34 35 36 33 32 31 28 29 29 27 26 25 25 27 31
63 61 57 52 47 47 44 40 38 25 39 26 29 28 30 25 15 19 21 19 17 21 29 35 38 37 32 33 31 30 33 33 35 32 32 32 27 26 24 25 28 29 26 24 23 22 22 23 24
61 59 56 51 47 44 40 39 34 27 34 27 28 29 27 19 19 18 20 21 16 23 27 37 40 35 33 31 29 30 31 32 33 30 31 29 27 26 27 28 30 27 22 22 20 16 15 12 16
52 53 51 44 43 45 42 40 35 28 27 30 30 22 19 19 18 18 19 20 18 28 33 36 38 31 30 27 29 29 30 33 30 30 28 29 30 30 30 28 25 18 19 19 14 11 13 15 18
41 42 40 41 41 45 41 42 37 27 29 32 26 21 20 18 17 19 21 19 20 29 33 34 30 28 24 26 28 28 30 32 29 29 29 30 32 28 25 18 15 14 13 9 7 11 9 14 19
33 29 35 37 37 40 35 47 37 29 30 28 19 22 21 20 16 17 18 21 23 25 24 26 25 23 23 23 26 29 31 28 27 27 28 31 30 26 21 13 9 8 4 2 9 12 16 18 21
29 30 35 38 36 40 38 47 28 25 21 17 19 19 15 18 15 14 16 20 19 19 21 21 23 22 21 23 27 28 27 25 27 26 29 30 25 20 14 7 5 2 6 11 15 18 17 20 23
29 31 25 33 39 51 35 37 21 18 15 22 22 13 16 16 15 15 16 16 19 17 17 20 19 19 21 24 24 24 23 24 25 28 29 25 20 15 6 4 3 8 11 16 16 16 16 20 27
39 37 33 37 43 47 25 39 20 10 21 22 16 16 19 11 14 11 13 15 13 11 15 16 18 18 21 22 25 25 24 26 23 28 24 20 14 7 6 5 8 11 11 17 17 17 19 21 25
29 33 37 36 33 33 26 36 4 18 20 20 20 19 12 7 10 12 14 14 15 13 13 17 17 20 20 21 25 23 22 21 24 25 21 12 8 7 7 8 12 14 14 18 19 19 18 21 20
31 40 27 33 36 30 35 25 17 27 22 15 17 9 7 6 10 14 13 11 12 11 13 14 17 19 18 20 22 18 17 19 22 17 11 9 8 9 10 11 14 16 18 21 21 20 21 19 14
42 36 37 38 38 40 34 22 18 22 18 19 9 8 5 6 10 12 9 8 9 11 10 13 17 16 16 19 16 13 15 17 17 12 9 7 8 9 11 12 12 17 21 23 19 18 19 19 17
49 45 46 42 45 38 33 20 15 22 20 12 12 9 6 5 12 11 8 9 10 12 9 13 15 15 14 16 12 12 15 15 12 9 8 9 7 8 11 12 11 17 22 17 18 18 20 20 17
38 40 40 39 40 35 24 20 24 25 22 13 11 12 5 8 10 10 6 8 10 13 8 12 12 12 11 13 11 11 13 14 9 10 9 9 8 8 10 11 14 16 18 16 22 21 21 19 18

GFSSGP_500_spd_009.txt.gz
Wind_Speed
14 15 14 16 14 17 20 21 21 22 18 17 18 18 20 24 27 28 30 31 32 31 37 38 38 38 37 36 34 34 34 32 32 35 37 38 39 36 33 33 33 34 33 33 32 32 35 33 31
15 19 22 22 19 19 25 24 22 24 22 20 22 23 22 24 25 27 29 32 35 34 38 39 39 38 37 37 37 35 35 34 32 29 29 33 34 37 36 34 34 34 35 35 34 33 34 33 32
21 21 23 22 22 25 25 27 26 27 27 25 25 26 24 26 25 26 29 33 33 34 37 40 40 36 35 38 37 39 38 31 28 27 26 25 28 31 34 35 34 34 35 37 37 36 34 34 34
24 26 26 26 26 25 26 29 29 30 32 33 35 33 30 26 28 29 32 36 36 37 36 38 40 37 37 37 38 39 37 32 30 29 29 26 28 29 29 32 34 33 35 37 39 38 37 35 35
28 28 30 27 25 27 28 29 32 35 35 36 35 31 30 31 32 33 35 34 34 34 33 34 39 41 38 37 38 34 33 32 32 30 29 27 26 26 29 30 32 32 33 35 35 36 36 36 35
29 27 29 26 25 27 28 30 35 37 39 37 37 35 34 33 37 39 39 42 42 34 31 33 39 40 39 38 34 33 34 34 34 35 35 35 35 34 32 31 31 32 31 31 34 35 35 36 37
32 34 32 30 29 30 28 35 36 37 38 39 37 38 37 36 38 41 43 44 45 34 34 35 38 39 40 38 35 35 36 36 37 39 40 41 41 40 38 37 36 34 33 33 33 33 35 37 38
37 39 38 33 34 31 28 29 36 39 36 35 37 41 39 37 39 43 44 41 35 30 33 34 36 39 40 39 36 36 39 39 40 41 44 43 40 38 38 36 35 36 36 35 34 34 34 36 36
44 47 40 34 31 29 31 32 36 37 33 31 34 36 44 47 49 45 41 37 33 31 29 32 36 40 39 38 39 39 39 39 40 41 40 37 38 35 34 34 34 34 34 34 34 33 32 31 31
51 51 41 29 27 32 36 40 38 38 36 23 37 41 49 51 50 45 38 35 36 29 30 31 36 39 40 39 40 39 40 39 37 38 38 34 33 33 33 33 33 33 32 32 32 33 33 34 34
51 49 40 35 29 39 37 38 39 37 31 28 39 41 43 44 41 38 32 33 36 31 29 31 36 39 41 41 37 39 37 37 38 34 31 31 30 31 31 32 32 31 30 30 32 33 36 37 37
51 50 49 41 36 43 36 38 34 39 26 33 38 44 45 40 35 32 28 33 34 29 28 31 35 38 43 41 37 35 36 37 34 29 28 30 30 32 31 31 28 28 30 31 30 30 31 33 34
52 51 49 50 40 41 41 36 35 36 23 37 42 41 41 36 33 27 30 35 33 31 27 32 36 39 37 37 36 34 35 35 32 29 29 30 32 33 32 30 28 27 26 27 29 32 33 34 33
47 49 50 52 49 38 42 34 42 30 28 38 41 42 41 38 32 28 30 38 38 29 31 33 37 32 30 32 34 34 35 34 33 30 30 29 33 31 30 28 27 27 28 27 27 31 31 30 30
51 53 52 52 47 44 42 35 39 31 36 41 42 44 42 38 33 30 30 36 33 30 25 22 16 24 26 32 34 33 34 35 32 31 29 33 32 31 30 31 30 30 30 28 30 27 27 26 27
56 58 60 53 50 48 48 38 40 31 37 36 39 44 36 30 28 30 28 30 30 28 21 22 19 23 29 35 35 34 35 32 31 30 33 31 30 31 28 27 29 28 30 28 28 28 26 27 27
64 62 61 57 52 54 52 47 39 33 36 35 36 37 30 25 27 28 28 31 29 27 24 27 20 26 33 36 35 34 33 31 29 30 32 31 31 29 28 26 26 25 26 30 31 29 28 28 28
57 58 55 55 55 60 57 53 51 37 39 34 33 33 29 27 29 31 30 28 26 26 28 26 22 30 32 38 37 35 31 31 28 31 33 32 31 29 31 31 31 31 32 33 31 28 26 27 28
59 60 58 58 54 54 51 53 51 36 35 33 31 29 28 24 27 30 30 26 26 27 29 21 25 25 31 40 37 33 31 30 29 32 32 32 31 33 33 32 29 33 30 31 27 24 25 25 25
52 53 53 49 45 47 48 48 46 37 35 33 28 28 26 27 28 28 25 25 24 27 25 23 25 29 33 37 33 31 29 29 31 32 31 33 33 34 34 29 28 24 24 19 21 21 19 18 16
41 39 35 37 33 41 45 50 47 38 36 33 26 28 23 25 27 28 24 25 24 28 22 24 24 28 32 32 30 27 28 30 31 29 31 33 33 33 30 29 23 18 16 15 14 14 14 13 16
42 25 23 25 29 39 42 52 41 36 37 32 23 26 22 27 24 23 26 24 25 22 21 22 23 27 28 28 26 25 28 29 26 28 32 31 32 29 28 22 14 11 9 3 2 5 7 11 18
30 27 25 27 34 40 39 45 33 29 24 23 24 25 26 22 24 24 21 25 24 18 18 18 21 23 24 25 24 25 28 27 27 31 27 29 27 26 19 10 6 3 2 7 9 10 12 16 20
38 35 34 34 37 41 34 39 30 14 22 19 20 26 20 21 21 18 18 22 14 16 16 16 19 20 22 22 23 25 27 27 27 28 29 26 24 15 7 3 3 6 12 16 13 12 15 18 22
47 43 44 39 38 34 27 37 13 12 6 17 22 21 20 19 16 15 17 15 15 16 16 17 17 20 20 22 23 26 26 24 23 26 24 20 13 7 3 3 7 8 10 12 12 14 17 20 22
47 40 42 35 31 29 25 32 22 13 10 15 17 18 21 18 13 13 14 10 12 12 13 15 18 18 20 19 22 24 20 19 21 22 17 15 6 5 6 7 8 9 10 15 16 19 20 21 21
42 41 31 33 32 21 28 18 13 14 18 20 12 18 16 16 12 12 7 9 10 8 12 14 14 17 16 17 22 18 16 18 19 16 14 6 8 9 8 11 11 13 18 18 18 16 17 16 13
43 37 39 38 34 27 25 21 13 18 20 18 18 18 16 13 9 8 8 8 9 9 13 12 13 15 13 16 19 15 16 17 16 14 10 3 9 8 12 12 12 18 21 18 17 17 14 10 12
50 47 45 39 36 30 22 19 11 17 20 14 19 21 16 8 8 6 8 9 9 8 11 9 12 13 11 16 17 15 16 17 15 12 3 5 8 9 10 11 14 17 18 17 16 15 14 11 12
45 44 41 38 33 28 18 13 13 20 22 18 19 22 15 7 6 9 6 8 7 9 6 8 11 10 12 16 14 13 15 12 11 8 4 7 9 9 10 11 12 18 14 15 17 16 14 14 11

GFSSGP_500_spd_015.txt.gz
Wind_Speed
16 15 14 12 12 11 10 11 10 16 18 21 23 23 19 18 20 21 29 32 34 36 37 38 38 42 43 44 41 34 31 31 35 37 37 35 31 30 31 32 31 33 34 35 36 35 35 36 37
17 18 17 16 15 11 10 13 23 13 19 24 24 25 29 20 27 26 31 30 32 35 38 39 40 42 43 44 41 32 31 34 35 36 35 34 32 30 31 31 29 28 30 34 36 36 36 36 36
21 20 20 20 19 11 9 19 10 26 25 25 24 29 29 26 33 28 27 32 32 34 36 36 39 42 44 42 41 34 34 37 37 35 34 33 32 31 31 28 28 28 28 30 32 36 37 36 37
24 25 23 23 21 16 20 9 18 29 23 28 24 26 31 38 31 31 31 33 35 34 36 36 41 42 43 39 38 35 35 37 35 33 33 33 34 34 34 33 32 27 25 28 31 33 35 37 37
28 29 28 24 24 22 21 27 26 24 22 28 24 25 30 43 32 32 33 35 37 37 38 39 40 40 40 37 38 35 36 35 32 34 34 35 35 36 38 39 39 37 33 29 28 32 33 34 36
33 32 29 27 21 20 25 33 35 32 23 23 29 26 25 38 36 31 34 38 40 46 41 43 40 38 38 36 36 35 36 32 32 34 35 38 39 39 38 38 39 40 37 36 34 32 33 34 35
36 36 32 27 20 18 25 29 31 28 21 21 25 30 25 30 41 34 40 40 42 45 46 43 36 35 35 34 36 36 35 32 33 34 38 39 39 38 37 34 31 31 30 30 31 33 34 32 34
40 42 41 31 26 25 23 36 31 35 25 27 37 39 26 30 42 36 41 42 44 48 47 42 36 33 33 36 37 38 38 35 36 35 39 38 37 37 35 33 29 29 29 29 29 30 31 34 32
45 47 46 41 33 33 24 26 28 41 41 40 41 41 37 40 41 39 41 40 40 48 44 40 38 32 35 37 36 40 39 37 38 38 39 38 38 38 34 29 29 28 28 29 29 30 30 32 33
52 48 47 43 38 30 31 29 30 35 36 42 42 39 42 40 43 41 42 41 41 39 42 35 35 33 34 36 36 41 39 39 40 39 39 40 37 34 33 31 30 31 30 31 30 29 30 31 33
50 54 46 45 38 39 36 40 38 42 44 42 46 40 44 42 43 41 42 43 42 39 41 36 36 35 35 37 39 41 39 40 38 39 38 38 36 35 32 31 32 32 33 34 30 30 28 28 31
56 54 52 48 48 47 46 43 43 47 51 55 44 43 44 41 41 40 41 40 40 43 39 37 37 37 36 38 42 41 41 35 39 34 34 35 36 33 32 32 34 34 34 30 29 29 28 27 29
65 62 59 54 53 52 55 59 62 61 52 51 46 45 47 46 44 38 42 41 42 41 35 36 36 36 36 40 43 41 36 35 35 35 33 34 32 31 32 33 34 30 31 30 29 28 30 31 28
59 61 62 61 61 59 62 57 58 59 53 46 49 49 48 45 45 40 42 42 39 38 33 32 35 34 35 42 41 32 31 35 32 36 35 31 31 32 34 34 29 29 29 28 25 26 28 30 29
66 69 69 67 63 62 58 59 55 50 52 48 53 51 49 45 41 39 42 42 36 33 28 29 34 33 36 39 31 31 33 34 34 36 35 33 32 32 34 34 30 29 27 26 23 24 25 27 30
68 68 67 55 54 56 47 58 45 45 45 45 43 42 48 43 42 39 41 43 33 27 28 27 30 31 36 34 32 32 32 33 38 37 36 34 34 33 35 34 31 31 29 28 27 27 26 24 26
61 60 51 52 51 46 45 53 45 42 43 45 42 49 47 45 44 43 47 41 30 29 28 27 28 33 34 31 35 31 33 35 37 38 38 36 34 35 34 32 33 33 33 32 31 31 31 30 28
51 53 60 55 51 44 45 49 42 46 46 47 47 50 51 46 48 45 45 39 33 30 30 28 29 32 36 33 34 31 36 37 38 40 38 36 37 36 33 33 34 35 33 30 27 26 27 29 30
58 61 58 51 46 39 41 43 48 52 45 46 47 49 53 46 44 40 38 35 34 29 29 30 30 33 32 35 32 34 37 40 40 40 35 37 37 36 34 37 34 35 32 30 28 28 27 29 27
55 58 52 51 48 39 40 43 46 46 48 42 43 43 47 45 38 35 34 31 33 28 26 26 31 32 32 32 34 37 39 40 40 38 35 36 39 38 37 35 36 32 30 25 23 24 24 26 28
56 52 50 46 44 37 40 52 47 48 43 39 39 44 45 37 33 31 31 28 30 25 24 28 31 30 32 34 36 37 37 38 35 37 36 35 37 34 34 33 29 24 21 18 17 18 19 22 24
51 49 46 47 49 46 39 50 44 42 34 38 34 34 31 31 29 28 29 27 27 24 25 29 33 30 32 33 32 32 33 32 34 33 35 32 30 30 26 22 16 14 13 13 13 12 12 16 21
46 42 42 44 45 40 43 47 41 33 34 29 27 29 26 28 27 25 25 25 23 24 27 30 31 30 30 30 28 28 28 28 30 31 26 28 26 22 16 14 11 11 11 8 7 7 8 7 9
49 44 45 42 38 44 40 47 36 25 29 27 25 20 19 26 28 24 22 22 22 24 27 29 29 28 30 28 26 25 24 26 24 23 24 21 19 14 11 8 7 6 6 5 7 9 8 1 7
57 51 43 43 43 45 39 41 28 21 26 20 21 22 23 26 20 22 20 20 21 24 25 27 26 25 25 23 20 21 21 21 20 21 18 16 13 11 7 6 6 7 7 5 5 7 6 4 7
67 62 55 52 40 38 35 35 24 21 19 13 13 16 17 21 20 17 17 18 21 22 24 24 22 20 20 17 18 17 18 15 18 18 13 10 10 7 5 5 4 4 3 4 5 5 2 4 6
70 63 49 35 28 24 21 21 19 20 14 11 14 18 15 12 12 13 15 18 21 22 22 19 19 20 16 15 13 14 14 15 14 12 5 6 7 3 4 2 1 0 3 4 4 2 8 9 9
59 52 50 50 39 29 21 19 16 19 19 15 12 12 11 12 12 12 16 19 19 20 18 18 18 15 13 12 13 14 13 11 9 6 3 4 5 1 4 1 1 3 4 2 2 3 4 10 8
69 51 57 44 37 32 24 17 20 23 13 12 10 13 6 7 10 12 16 17 21 16 16 15 12 11 12 11 14 12 11 6 7 3 2 2 2 2 3 2 5 5 3 3 5 7 9 11 10
62 53 55 54 45 30 23 16 22 25 26 22 19 20 10 9 11 15 16 18 14 14 12 9 9 10 9 11 10 7 5 3 1 3 2 1 2 5 6 2 4 4 1 4 6 7 13 14 7

GFSSGP_500_spd_021.txt.gz
Wind_Speed
20 18 17 16 13 11 12 6 9 11 16 26 28 22 20 28 28 30 27 29 32 34 34 33 33 33 33 34 36 33 28 23 23 23 23 26 27 26 27 29 29 29 28 29 25 27 32 35 34
22 22 20 17 14 9 16 14 16 17 24 26 29 19 22 32 28 33 28 28 33 36 35 34 33 34 34 33 34 31 26 22 21 22 25 25 25 27 27 27 28 30 31 29 29 28 28 31 33
25 27 21 21 17 13 19 20 19 23 28 31 26 18 18 28 35 28 32 34 32 35 35 35 33 34 35 36 34 30 25 20 20 23 26 25 26 28 30 30 30 30 31 32 32 30 31 32 32
25 28 24 25 18 16 23 25 19 18 19 6 5 9 16 27 28 36 42 27 34 37 35 36 32 36 38 40 35 29 24 20 22 25 26 27 28 31 33 35 36 32 30 30 30 31 31 33 33
30 32 34 27 27 23 22 21 16 24 12 16 23 17 26 26 33 40 38 39 39 39 39 35 25 33 40 37 33 28 24 24 26 25 27 28 30 33 35 38 39 36 31 28 27 27 27 29 35
39 40 39 40 30 23 23 13 15 22 18 26 22 21 29 35 41 42 42 41 40 41 41 39 35 36 38 35 31 27 26 28 27 25 28 29 31 34 37 39 37 31 28 27 26 25 25 24 29
40 44 41 39 38 34 28 20 22 26 32 34 32 23 35 42 38 46 46 46 41 45 43 43 45 35 35 37 30 28 27 28 27 27 28 30 33 35 36 33 33 30 28 26 25 24 23 24 24
46 50 45 44 42 41 33 26 13 23 28 24 28 29 32 40 41 47 48 48 48 51 46 41 47 40 34 34 33 31 30 29 26 28 29 31 33 35 32 32 33 33 31 31 28 27 26 25 25
58 59 55 49 37 30 30 39 32 15 26 27 26 34 30 35 40 42 43 46 46 49 52 45 48 50 34 35 38 33 31 29 26 28 30 31 33 35 33 34 33 32 30 30 29 29 28 27 27
60 60 58 46 39 37 36 44 43 30 34 17 24 27 37 32 36 38 38 47 49 51 52 46 49 50 42 36 34 35 31 29 27 29 29 31 33 35 35 35 31 30 29 28 32 33 30 29 29
60 59 51 43 39 39 37 37 37 48 48 37 34 32 29 32 34 41 47 44 54 49 46 44 48 51 44 37 33 32 30 29 27 28 29 31 32 35 36 34 32 31 30 29 31 30 30 27 27
60 60 56 49 45 43 43 40 41 45 52 47 39 39 40 39 45 48 55 55 58 50 42 42 46 48 43 37 33 31 31 30 28 29 29 29 31 35 37 35 33 32 32 31 31 31 29 28 27
66 60 56 50 49 46 47 48 45 46 47 46 43 47 51 55 54 55 60 62 54 47 44 40 41 41 37 36 35 33 33 29 26 28 29 29 30 35 36 38 35 34 32 33 34 31 28 27 25
59 57 55 53 53 53 53 51 51 48 49 49 48 51 52 54 56 54 56 54 49 48 49 44 35 39 36 35 35 36 35 29 25 25 27 28 31 34 38 38 37 36 36 37 37 31 29 28 26
69 65 63 59 56 57 53 54 46 44 45 45 47 48 45 43 44 46 48 47 47 47 39 29 33 39 38 37 36 38 39 31 27 27 26 27 29 35 39 41 40 39 38 37 36 33 32 32 29
69 73 70 58 58 56 55 51 43 44 41 41 40 34 35 40 37 36 38 42 45 43 41 32 37 39 39 37 37 38 40 33 29 30 30 29 33 35 42 44 45 45 41 41 41 39 36 35 33
60 65 65 53 50 54 61 47 45 41 39 39 35 31 32 27 25 26 28 38 44 48 43 37 41 38 37 34 33 35 31 30 32 33 33 31 33 41 44 46 48 46 46 45 45 42 39 37 35
55 55 52 49 53 54 53 51 45 37 37 34 32 34 28 31 37 34 40 43 48 48 44 41 39 34 35 32 28 29 26 26 30 32 32 34 37 42 47 48 48 46 45 44 43 41 40 36 35
53 54 51 49 48 47 45 45 40 32 32 33 34 29 29 34 38 42 32 33 41 45 39 39 35 34 32 31 28 25 25 27 29 32 32 33 39 43 44 45 46 44 41 42 39 35 33 30 29
59 55 48 45 46 44 38 43 40 33 34 32 34 29 35 36 34 29 31 34 41 44 41 38 29 32 29 27 26 25 26 29 30 31 34 38 39 41 42 43 41 41 37 31 28 25 24 24 24
57 55 47 46 49 43 43 50 46 33 27 32 34 36 34 29 27 29 33 39 40 37 31 25 27 28 26 25 24 25 28 30 30 31 31 37 37 38 38 38 38 32 26 22 22 22 20 20 19
59 54 52 53 52 47 45 56 42 28 28 31 31 38 23 21 27 30 32 34 36 26 18 21 24 22 23 24 23 27 28 29 29 30 33 34 35 33 33 32 28 23 20 18 20 19 18 18 18
56 54 53 52 51 49 51 47 23 28 25 25 27 25 21 23 28 28 30 30 24 20 19 19 19 22 22 22 25 27 27 26 26 29 30 33 32 30 28 25 21 18 17 17 18 16 17 15 13
59 58 52 49 47 50 38 44 20 21 23 27 19 20 21 27 27 26 24 20 16 14 15 17 21 20 20 23 26 24 23 24 24 27 29 29 27 27 23 19 17 16 15 16 14 13 14 10 4
58 58 55 54 53 45 33 41 28 16 20 14 19 20 25 24 22 20 14 13 11 14 15 19 18 19 22 23 21 20 22 23 25 25 26 25 24 20 17 15 13 12 11 13 16 15 13 7 4
58 61 60 59 55 43 40 48 18 20 17 10 14 19 21 17 17 14 13 11 14 14 17 15 17 20 20 20 17 21 23 23 23 23 24 21 20 13 13 12 9 8 8 12 15 16 13 9 4
55 64 51 57 54 51 46 40 27 18 11 8 18 15 13 10 14 6 9 11 14 16 13 15 17 17 18 18 19 20 20 20 23 23 22 20 14 11 11 6 7 6 8 14 16 13 10 8 5
58 53 56 56 55 54 45 41 31 15 9 13 13 15 9 11 11 10 11 10 14 12 13 14 16 15 16 17 15 18 17 19 21 19 18 14 10 10 9 3 6 6 11 16 12 10 5 6 3
55 53 61 57 57 51 46 35 10 12 18 17 17 13 13 14 12 13 12 12 9 9 10 12 12 14 14 13 14 16 17 20 15 14 12 10 9 7 7 3 4 5 7 12 18 8 6 5 2
65 61 58 62 55 50 43 26 12 15 22 17 18 15 17 14 10 14 14 10 6 7 8 10 12 11 11 13 14 16 14 13 11 12 11 9 8 6 3 2 4 5 8 14 8 5 12 8 2

GFSSGP_500_spd_024.txt.gz
Wind_Speed
21 20 19 18 18 15 15 17 16 20 20 17 24 27 30 28 27 24 23 24 23 32 32 33 35 34 33 30 31 30 29 23 21 19 17 19 21 21 22 23 24 26 28 29 29 28 25 26 27
24 22 20 20 20 17 18 22 18 20 26 26 29 32 36 33 32 24 25 21 27 29 29 31 33 37 37 34 33 31 25 20 18 17 18 20 20 19 20 23 24 27 28 28 30 30 29 27 28
27 26 25 24 19 17 20 19 17 21 25 32 29 31 35 30 24 21 24 27 34 32 33 33 33 36 35 35 34 33 25 18 17 19 23 23 21 20 22 26 26 29 29 29 28 29 30 29 29
30 30 28 24 22 21 20 22 23 30 30 29 22 29 35 28 19 21 28 32 37 35 36 34 33 35 31 34 36 35 32 25 23 26 27 25 23 24 25 29 30 30 27 25 23 24 26 28 29
34 33 32 23 20 26 23 27 29 28 28 25 17 21 14 22 29 28 32 36 38 37 36 34 35 31 33 33 34 34 32 28 29 31 30 27 27 27 29 32 32 27 24 22 21 21 21 22 24
38 37 34 29 24 29 23 30 26 27 17 14 21 28 26 33 29 33 40 41 31 38 29 35 31 32 33 36 35 36 34 33 33 34 32 29 29 29 31 32 30 26 26 25 23 22 20 21 22
43 42 38 36 32 34 26 37 33 21 15 19 23 23 27 30 33 40 45 46 34 33 30 37 34 37 29 35 36 32 35 31 31 34 33 31 30 29 32 30 29 29 29 27 25 24 24 24 23
45 49 46 46 43 37 30 36 37 34 19 20 25 33 36 39 42 44 44 43 39 35 38 41 39 47 39 34 35 32 33 33 31 33 33 32 29 30 31 29 29 30 29 28 27 24 25 27 27
47 58 52 48 47 39 30 38 37 31 33 29 26 35 40 38 39 41 42 46 38 43 47 50 52 50 45 37 34 32 34 35 30 32 33 31 28 30 31 30 30 29 28 28 28 28 29 29 29
54 59 57 48 46 47 44 45 33 38 41 35 30 38 40 34 35 41 41 42 37 42 52 52 53 55 40 39 32 33 34 35 30 32 32 28 27 30 31 31 30 29 29 29 27 28 30 31 29
59 63 54 49 48 52 47 42 48 40 43 44 36 37 27 32 31 35 37 40 40 49 53 54 58 53 37 38 30 33 34 35 32 34 32 27 26 29 30 31 32 31 31 29 29 27 29 32 30
65 65 64 54 54 53 49 45 44 42 34 37 38 44 45 46 50 45 51 50 51 52 52 57 53 48 37 38 28 31 35 36 34 34 30 26 26 29 31 31 35 35 33 31 31 31 32 33 29
63 59 62 62 60 55 52 52 45 43 41 40 41 39 41 42 44 46 49 52 54 55 57 54 47 38 35 33 28 32 37 38 35 34 26 22 25 29 32 32 36 37 39 36 34 33 32 31 28
67 68 65 65 63 60 60 57 49 46 40 39 45 42 40 43 47 48 50 51 51 50 49 49 38 30 27 29 30 33 38 38 36 32 26 22 24 29 31 36 37 40 42 39 38 36 33 32 29
74 75 75 69 66 61 54 55 52 43 37 39 40 43 46 43 43 45 44 45 47 46 43 44 33 28 29 31 32 36 37 38 36 30 26 22 25 30 34 38 40 46 43 43 42 42 37 35 33
76 78 71 57 58 60 55 56 45 40 44 46 44 45 41 40 36 32 36 36 32 32 36 40 39 33 31 35 35 39 37 37 34 28 24 24 28 35 38 39 42 42 45 46 46 44 42 38 36
68 66 63 50 51 58 61 51 46 43 44 43 42 38 36 36 29 30 30 31 33 34 38 39 38 39 36 36 38 39 38 36 34 27 24 25 31 31 35 41 40 44 45 46 46 42 40 39 37
61 59 57 54 50 50 51 49 47 43 41 42 40 35 31 27 29 29 33 30 29 33 35 36 37 37 37 34 36 36 36 34 34 24 26 25 28 32 35 39 42 42 43 43 42 39 36 33 32
57 61 56 50 50 46 45 49 48 44 41 40 36 36 28 29 28 31 23 23 28 32 37 38 40 41 39 31 31 33 34 35 31 26 28 28 31 35 38 41 41 40 39 38 35 31 30 28 25
59 58 52 51 51 47 43 44 44 43 41 39 29 31 30 28 26 26 24 27 30 36 38 39 40 44 36 29 28 31 32 33 26 27 29 31 33 35 38 39 38 37 34 31 28 25 24 24 23
60 57 53 53 50 47 50 43 46 36 38 31 32 28 28 27 23 24 26 29 31 36 38 39 36 35 28 23 25 29 30 26 26 31 31 32 33 34 36 36 34 31 29 26 24 23 24 22 21
64 57 55 54 51 51 46 47 39 34 34 31 28 29 28 24 19 25 27 29 31 37 37 36 25 26 23 18 28 28 24 24 29 29 31 33 31 32 32 32 29 25 22 21 20 22 22 22 19
57 61 59 57 54 54 48 45 25 34 30 24 26 27 21 17 23 27 28 29 27 27 25 23 22 22 18 24 25 23 23 26 27 27 30 26 28 28 28 26 22 19 17 16 16 17 17 19 17
58 62 62 59 57 57 42 42 24 23 17 22 21 20 16 17 25 21 22 18 16 14 16 19 19 20 20 23 21 21 24 25 23 26 24 25 25 24 24 19 17 15 14 12 14 16 16 16 12
59 60 61 61 61 46 40 41 17 12 17 24 19 16 16 22 16 21 20 13 14 12 17 18 16 18 23 20 19 20 20 20 23 22 22 23 22 20 18 14 13 11 10 10 15 17 14 13 11
58 58 60 59 58 52 49 43 31 16 25 19 17 15 17 11 15 18 13 14 14 13 15 13 15 19 19 17 18 19 19 21 20 19 21 22 18 15 13 12 10 9 10 15 18 15 11 10 8
56 60 55 59 59 56 52 47 37 25 23 11 12 7 7 11 17 9 10 11 13 13 12 14 15 16 16 16 17 18 19 17 19 18 21 16 14 11 10 10 8 8 8 14 17 15 6 5 5
54 55 57 59 57 57 51 48 39 27 24 15 12 5 8 14 13 9 11 10 11 11 13 13 14 15 14 15 16 15 16 17 19 19 14 12 9 9 9 8 6 5 8 12 13 12 11 6 3
55 55 55 59 59 54 51 47 30 26 20 18 9 11 10 8 8 10 10 10 10 11 9 10 11 11 13 13 13 15 16 19 16 13 11 9 8 7 6 3 3 5 7 11 7 10 14 8 6
52 56 56 60 58 54 51 43 28 25 25 20 11 7 5 5 10 10 11 11 12 9 8 9 10 11 11 13 13 15 16 14 11 9 8 8 8 5 3 2 2 3 5 10 3 9 12 8 4

GFSSGP_500_spd_027.txt.gz
Wind_Speed
21 20 21 22 22 21 24 21 19 16 19 18 18 19 20 21 22 25 25 26 26 18 26 27 27 28 27 27 27 28 28 26 24 24 22 24 25 27 26 24 24 26 28 29 28 28 29 28 27
24 23 24 24 22 21 23 23 24 24 21 21 23 26 28 27 27 31 32 31 32 20 26 26 26 28 30 27 28 27 27 25 22 20 21 25 27 27 25 24 25 27 29 31 29 28 29 28 28
28 26 25 26 25 22 27 25 26 23 21 19 23 29 27 29 31 31 33 35 28 27 27 25 25 26 29 29 28 29 26 26 25 24 25 27 27 25 25 25 26 27 30 30 28 26 23 24 26
32 32 29 29 24 24 26 28 27 26 26 32 32 34 29 36 35 35 29 33 33 27 28 22 26 27 28 28 29 29 31 27 26 27 28 28 29 26 27 30 30 29 27 26 25 23 22 22 22
35 35 34 31 28 26 31 31 28 33 37 36 38 32 28 20 22 24 33 36 36 30 28 28 24 27 31 32 35 35 34 31 29 29 32 31 32 31 31 33 32 32 28 24 23 22 22 23 21
40 40 38 33 30 32 32 34 31 37 38 39 36 36 31 30 30 31 35 39 33 31 30 29 25 27 33 36 39 39 38 31 35 34 34 34 34 33 33 33 34 33 30 26 23 21 22 22 22
42 43 40 35 32 36 35 39 38 43 37 34 36 32 32 35 34 36 36 37 38 29 29 28 27 33 37 36 38 40 37 30 30 32 32 33 34 34 32 32 33 32 31 28 24 23 22 22 21
47 48 45 42 36 35 38 43 43 41 42 42 40 38 37 34 34 37 42 47 41 32 30 27 41 45 41 40 34 37 35 30 31 34 31 32 34 34 31 30 32 31 32 27 25 24 24 24 23
52 55 50 45 40 39 45 48 41 37 39 38 41 40 39 34 39 44 44 43 42 33 27 40 42 46 49 46 47 36 28 26 29 33 33 32 35 35 31 30 31 32 31 27 26 25 25 26 26
55 59 52 43 41 44 49 46 36 38 35 33 37 41 43 40 40 42 37 39 43 41 39 39 42 50 50 51 47 35 31 28 30 33 34 32 35 36 32 29 31 32 33 31 29 27 24 26 28
59 61 51 47 46 45 45 51 40 46 45 30 34 42 41 40 41 36 36 38 40 44 47 48 50 53 47 51 40 33 34 29 32 35 37 34 35 36 31 30 32 32 33 35 34 33 28 27 30
59 60 58 51 50 52 51 51 50 50 48 40 38 44 45 44 41 39 34 44 47 49 50 52 53 53 49 47 35 36 35 30 32 35 37 36 35 35 31 29 32 32 36 37 39 40 36 30 30
69 66 65 63 58 58 57 57 53 50 48 46 41 45 42 39 36 37 42 44 44 47 50 52 53 56 50 38 31 31 28 29 33 36 38 36 36 35 31 29 30 34 38 40 42 43 37 34 32
64 64 65 67 65 64 63 59 58 57 49 51 45 45 45 41 40 36 37 43 47 49 49 53 53 53 45 32 31 29 30 33 35 38 37 36 34 33 32 28 33 37 39 44 46 41 39 38 36
69 71 71 70 66 68 63 63 59 50 51 47 46 45 44 39 37 43 43 47 44 45 47 47 47 40 33 32 32 30 31 33 36 37 35 35 35 33 33 33 35 39 42 45 44 41 41 39 37
77 77 74 68 71 70 68 63 53 53 53 46 42 38 40 42 44 45 45 43 45 46 43 43 40 35 36 34 31 32 32 32 36 34 34 34 34 33 34 38 37 39 40 45 41 41 40 39 35
80 76 72 69 67 74 72 53 54 47 49 49 45 45 44 47 48 45 42 41 41 40 40 44 39 38 37 34 31 32 28 30 34 32 34 35 32 33 31 34 37 38 42 41 40 39 38 35 32
69 66 69 70 63 62 69 58 52 47 45 48 49 46 45 45 43 39 37 38 39 39 39 39 39 39 38 37 36 35 32 32 30 32 35 34 33 31 33 33 38 40 38 37 38 37 34 32 30
62 64 65 62 60 57 59 58 53 51 47 45 44 45 44 40 38 37 36 35 35 36 35 37 39 36 37 39 36 35 32 35 31 32 37 32 31 32 31 34 36 34 35 36 36 33 32 29 28
64 63 60 58 55 53 51 53 54 51 46 43 41 42 41 39 33 31 30 32 33 33 39 36 34 37 39 32 35 33 30 35 30 32 35 32 39 35 32 33 32 33 33 33 31 30 28 28 28
66 64 60 58 55 52 54 56 52 47 44 41 41 39 37 33 30 29 32 32 30 34 34 33 36 34 34 32 31 32 31 26 27 33 32 31 32 33 31 29 30 30 30 28 27 25 25 26 25
66 63 60 60 55 55 51 55 48 39 40 43 40 38 33 31 29 32 29 24 32 32 32 33 35 34 32 29 26 24 22 23 29 31 28 30 32 28 27 27 27 28 25 24 23 20 19 20 21
62 62 62 61 58 55 52 52 30 36 35 32 30 30 27 29 31 27 23 29 26 28 31 30 31 25 25 21 23 19 22 27 27 27 26 26 27 25 24 26 25 23 21 21 19 15 19 20 17
63 64 58 60 60 62 49 50 22 30 29 28 30 31 29 25 20 22 27 23 25 29 31 27 23 21 20 19 20 22 26 25 26 25 25 25 23 22 25 23 21 20 19 17 17 21 19 17 15
62 64 62 60 62 52 49 50 25 15 28 28 30 28 20 19 23 20 19 24 27 30 28 24 17 15 18 19 21 25 24 23 24 23 23 21 21 24 22 19 17 17 13 13 19 17 17 15 13
58 60 62 64 58 48 50 47 34 14 24 25 23 18 19 21 16 16 21 24 21 22 18 14 12 15 16 19 22 22 20 21 22 20 18 18 22 19 17 15 13 11 9 13 16 16 16 11 9
52 56 52 53 55 52 51 44 40 24 24 21 18 18 18 15 18 19 19 15 11 11 14 12 13 15 18 20 19 17 18 17 15 16 17 21 17 13 12 12 10 9 8 11 15 11 15 12 9
50 51 51 54 55 55 51 47 38 34 18 20 17 17 14 17 17 17 14 9 8 9 12 12 15 16 17 16 14 14 12 14 15 18 19 14 10 9 11 9 7 8 9 11 8 8 16 9 6
43 50 54 52 54 55 52 50 40 32 28 28 20 20 17 18 15 15 10 8 10 10 10 13 15 14 12 13 11 11 13 14 17 13 9 8 6 9 8 6 7 8 9 12 7 9 12 12 9
38 48 54 57 56 55 54 51 46 33 33 26 22 17 19 14 12 11 5 8 8 9 10 13 12 10 10 10 11 13 14 14 10 10 7 4 6 9 4 5 5 6 7 9 7 7 10 8 9

GFSSGP_500_spd_030.txt.gz
Wind_Speed
23 23 24 24 24 24 27 24 23 21 19 19 17 16 19 17 22 24 22 23 26 25 24 28 21 22 23 22 21 23 25 26 26 26 26 24 24 26 28 27 27 28 29 30 32 31 30 31 31
25 25 25 26 26 26 28 26 26 24 22 21 20 16 17 20 23 26 27 27 29 28 26 27 19 20 22 24 25 25 25 25 26 27 27 26 25 24 26 27 28 28 30 31 33 33 31 29 26
28 27 27 28 27 26 26 27 25 24 23 23 22 20 17 19 26 29 30 34 32 27 22 27 21 18 20 25 28 30 29 27 27 25 27 28 27 26 24 24 25 27 29 29 31 33 31 28 23
31 30 28 28 26 26 27 27 27 27 26 26 26 23 20 22 26 30 35 36 32 32 23 29 24 17 18 25 32 36 34 30 30 31 28 28 27 25 25 25 24 26 27 27 29 30 30 28 24
37 34 34 29 30 26 33 34 33 32 30 31 28 28 29 29 32 33 29 28 26 26 26 27 22 21 20 24 35 34 34 34 32 30 32 31 30 29 27 30 29 29 28 27 28 28 28 26 25
40 39 40 32 34 34 35 37 39 35 34 33 33 33 34 38 33 36 37 33 30 27 28 24 23 21 19 31 31 34 35 38 34 33 33 32 32 32 30 32 33 31 30 27 27 26 26 24 23
42 42 40 39 35 40 40 41 42 39 35 39 43 36 38 42 34 34 35 41 42 33 27 23 25 23 28 33 34 36 37 39 34 33 32 32 32 33 31 33 35 32 30 29 28 25 24 24 22
47 47 43 41 37 39 43 42 43 42 43 45 46 42 40 42 42 42 41 37 40 37 28 24 25 31 38 36 38 35 35 38 33 34 33 31 32 32 33 33 35 34 31 31 29 27 25 24 24
51 54 49 43 40 38 44 47 46 46 48 47 44 39 40 41 44 42 41 41 40 40 33 28 32 34 41 41 43 45 38 29 30 32 32 33 33 32 33 35 35 35 33 31 31 29 27 25 25
55 58 51 44 41 39 43 47 45 48 50 48 43 38 34 33 36 34 39 40 42 39 36 35 39 45 43 43 44 46 42 30 29 31 32 33 32 33 34 36 36 36 35 32 31 29 30 29 25
58 61 52 49 47 45 49 49 50 54 54 47 42 40 35 36 39 38 41 38 40 38 39 40 44 44 46 47 47 47 43 32 32 35 34 33 35 34 36 37 37 36 35 33 32 31 32 34 30
59 62 56 53 52 50 47 49 53 53 50 47 43 43 45 43 42 43 41 44 41 38 38 41 44 45 47 50 49 47 37 31 33 31 31 33 37 36 36 35 36 37 36 35 32 34 36 37 34
64 60 60 59 56 55 52 56 56 59 53 50 48 45 46 44 41 41 41 44 37 35 39 41 47 50 52 53 49 43 35 33 33 32 34 37 38 37 34 33 36 36 38 37 34 35 37 38 37
68 65 67 64 61 59 59 55 55 58 50 48 47 47 50 53 42 41 42 41 38 40 41 45 49 49 53 49 45 34 31 32 32 32 33 36 36 36 34 34 34 36 41 41 36 37 39 40 38
73 78 72 68 66 67 64 67 64 56 54 54 51 52 53 42 44 44 40 45 41 42 47 47 50 50 52 47 38 35 32 32 33 29 29 36 34 36 33 33 34 36 39 38 33 38 41 40 37
68 76 83 76 70 67 69 74 65 60 58 54 49 49 52 44 41 40 37 39 39 44 45 47 53 49 51 44 42 39 33 32 32 28 30 35 35 37 32 33 34 37 40 31 34 39 40 37 37
69 70 70 75 77 76 75 66 60 60 61 57 55 55 51 43 44 42 43 42 46 47 48 52 49 47 48 41 43 40 36 33 30 27 33 35 34 35 35 35 37 41 31 32 37 38 37 36 36
65 65 70 71 71 83 84 68 70 62 60 60 60 51 46 46 47 44 46 48 50 50 48 47 44 45 44 44 43 42 38 33 28 29 34 36 34 34 38 37 39 43 33 37 36 36 34 33 33
67 68 66 66 66 64 69 72 66 64 62 55 51 47 45 43 44 47 47 48 46 46 42 42 42 42 43 44 44 44 34 31 30 34 38 34 31 36 36 37 42 35 37 33 33 32 31 32 31
69 68 67 64 63 63 61 65 61 62 58 50 44 44 43 42 40 43 46 42 40 40 41 42 42 43 45 45 44 33 32 33 35 36 30 29 31 33 37 34 38 31 30 29 30 29 29 28 28
73 70 67 66 63 61 57 61 58 55 54 49 46 43 41 40 42 41 38 38 38 40 42 42 41 44 38 40 36 33 29 29 27 26 26 29 31 34 30 34 32 28 28 28 28 27 25 24 24
76 73 69 66 63 59 56 63 54 47 45 42 40 38 35 38 39 33 37 38 39 40 39 37 41 34 36 37 34 25 22 22 22 23 25 30 32 28 30 29 27 27 26 26 25 24 21 24 26
75 73 69 67 65 60 56 62 48 40 41 38 33 33 38 35 34 33 37 37 35 33 35 37 33 34 34 32 24 21 21 22 22 24 27 29 29 27 26 25 26 26 24 22 23 20 21 26 23
68 70 67 67 64 63 54 56 42 33 34 34 34 32 32 31 32 33 31 30 31 35 34 33 33 32 30 23 21 21 21 22 25 26 27 28 27 25 24 24 25 23 20 19 18 17 20 20 18
62 67 61 63 66 55 52 52 25 27 31 31 31 33 32 31 27 24 25 28 29 31 30 31 30 26 22 20 20 19 22 24 25 26 24 24 22 21 21 24 22 18 16 15 14 16 17 18 15
54 59 65 68 60 51 49 45 30 30 18 11 27 31 28 25 23 22 24 25 25 24 24 23 21 20 18 18 19 19 20 23 24 22 19 19 18 19 21 20 18 14 14 13 13 15 14 15 16
44 50 51 54 59 54 53 40 36 34 32 28 19 22 25 23 22 21 24 21 19 17 18 17 16 16 17 19 16 18 21 22 19 15 16 17 20 18 17 15 14 14 14 12 13 14 14 11 13
34 41 46 52 52 55 49 44 44 36 26 26 23 17 20 19 23 24 17 15 13 13 13 11 15 16 17 16 17 18 18 15 14 15 18 19 14 13 13 12 13 14 12 11 14 12 14 12 5
27 40 45 48 51 50 49 51 49 43 38 24 21 18 17 21 19 17 13 12 13 14 11 12 15 14 15 15 15 13 12 13 14 16 16 12 11 10 10 11 12 12 10 10 11 10 11 13 9
29 37 43 50 52 52 52 53 48 46 41 32 28 18 20 19 15 12 12 12 15 11 10 10 10 12 14 13 10 10 12 15 14 14 13 12 10 8 9 10 10 9 8 9 11 10 10 11 5

GFSSGP_500_spd_033.txt.gz
Wind_Speed
24 24 27 27 26 24 27 24 23 24 21 19 17 15 14 10 10 12 13 12 15 17 16 16 16 25 23 20 19 21 24 26 27 27 26 25 27 27 26 26 26 25 25 26 28 28 26 25 25
26 27 29 30 27 26 28 26 26 25 23 22 21 20 16 14 15 15 17 20 20 21 22 21 15 23 22 19 18 24 29 29 26 26 27 26 27 29 28 26 25 24 24 26 29 29 29 27 26
28 29 31 31 29 27 31 29 28 27 26 24 22 19 17 14 14 17 20 25 21 27 27 26 19 25 21 20 21 28 31 30 29 27 27 27 26 27 27 25 24 24 24 26 27 28 29 28 27
31 32 32 30 27 29 31 31 30 29 27 27 24 23 21 18 18 20 24 27 27 22 21 19 20 25 20 21 21 30 32 31 31 30 28 29 29 27 25 25 23 24 23 24 27 28 29 29 28
34 36 34 29 28 29 30 33 32 32 30 31 29 25 24 23 23 24 30 32 28 28 26 20 22 23 22 17 21 29 34 32 34 34 30 29 32 32 30 28 27 26 27 25 26 28 30 29 28
37 37 38 30 30 31 37 37 36 35 32 33 32 29 28 28 28 30 33 36 33 27 32 27 25 21 18 16 22 32 36 35 35 39 34 30 32 33 32 31 29 29 29 29 28 28 28 28 26
41 42 38 37 36 39 39 42 39 39 38 37 34 32 31 32 32 35 36 37 33 31 32 30 28 23 20 21 27 32 34 33 37 39 39 32 32 33 32 31 31 29 30 30 31 30 30 29 26
43 46 43 43 40 39 43 44 42 42 40 40 37 34 37 37 37 38 36 35 37 34 29 29 29 27 29 30 30 30 31 31 35 38 36 33 32 34 32 31 32 31 31 31 31 32 31 31 27
45 51 49 46 44 41 44 45 45 48 43 44 41 39 40 42 41 37 36 32 33 33 33 30 30 30 34 34 37 34 35 37 37 38 31 33 32 34 34 31 33 33 33 33 32 33 32 31 27
51 55 51 43 43 40 45 51 52 47 43 43 43 45 45 44 41 38 32 29 33 35 34 34 37 35 34 37 38 38 39 41 42 40 31 32 32 33 32 34 35 36 33 34 34 34 33 30 29
58 58 47 46 46 46 47 48 53 53 53 50 46 45 48 48 41 38 38 42 37 39 37 37 37 35 36 38 40 40 40 42 45 38 33 31 31 29 33 35 36 37 34 33 35 33 32 29 31
63 61 54 47 52 51 52 52 55 57 55 52 50 48 48 46 41 40 43 43 40 36 35 35 33 36 37 41 44 45 40 39 40 38 32 31 31 32 33 35 35 35 34 33 38 35 34 33 32
70 62 61 56 53 52 55 58 57 57 55 53 50 50 47 44 41 38 41 46 43 39 38 37 38 40 41 44 46 46 44 42 36 35 33 33 32 28 31 35 35 36 34 35 37 37 36 33 31
60 73 68 62 61 57 61 61 61 56 55 55 54 51 50 42 41 40 44 47 42 41 40 41 44 45 48 47 48 46 45 42 36 34 34 36 32 28 33 37 33 36 38 37 38 39 36 30 34
57 64 69 77 66 65 62 67 64 58 57 61 58 54 48 42 44 47 47 50 43 41 41 43 47 47 48 46 48 48 44 42 39 41 34 34 35 33 35 37 31 34 39 42 39 39 30 32 35
59 61 65 63 72 73 67 69 60 59 63 60 58 50 50 51 52 50 45 49 44 42 42 45 48 50 48 46 50 51 45 41 43 42 34 32 33 34 37 36 32 35 37 38 39 31 32 36 35
64 62 62 61 64 71 79 70 66 64 63 62 62 61 58 57 55 50 48 46 47 46 46 48 48 50 48 50 49 47 44 44 45 41 37 35 34 35 35 38 35 36 33 38 43 34 36 35 34
62 64 65 65 63 69 71 66 72 70 69 67 65 64 62 55 50 49 50 46 48 50 49 50 49 51 51 50 48 42 43 44 44 43 37 34 36 33 36 37 34 36 36 37 40 40 35 32 34
69 68 67 68 66 67 66 65 61 69 71 64 64 64 58 54 50 50 44 46 48 49 51 50 50 55 50 46 43 41 44 45 44 39 35 36 35 34 34 33 32 33 38 36 36 33 32 32 31
73 73 71 69 67 67 66 62 62 62 59 61 62 59 56 49 46 46 44 45 47 46 48 49 50 49 47 42 41 43 44 45 43 38 33 32 32 33 29 29 32 36 36 36 35 33 32 29 27
74 76 74 72 70 67 67 64 59 56 57 55 53 52 51 45 40 41 42 45 44 43 43 46 49 48 45 41 42 41 42 38 36 32 28 29 28 25 28 29 32 33 36 33 32 31 28 25 26
73 75 76 75 73 69 67 66 62 54 51 51 44 41 40 39 40 40 43 43 42 43 45 48 47 44 39 40 39 39 37 31 27 25 24 22 24 27 28 29 32 33 32 30 30 27 24 24 26
67 72 75 75 75 73 65 69 51 50 44 39 35 32 33 36 38 40 40 41 43 44 41 37 35 35 36 37 37 34 27 25 24 23 22 23 27 27 29 30 29 30 27 28 25 23 23 22 26
47 62 69 72 74 76 61 66 49 41 37 35 34 34 33 34 37 38 40 41 38 34 31 31 31 31 35 34 34 25 23 24 25 23 23 26 30 29 27 27 28 26 26 24 21 21 21 22 24
35 43 59 67 73 68 65 66 41 35 36 37 38 37 36 36 38 37 33 29 27 25 28 29 32 33 32 32 24 22 23 25 25 23 24 28 28 27 25 24 24 25 23 19 19 20 19 20 19
25 34 37 59 66 62 66 59 39 37 22 33 40 39 35 42 35 31 24 21 22 24 25 27 29 29 30 23 20 21 23 23 22 22 24 24 24 22 22 24 23 22 18 17 18 19 20 16 18
21 31 34 36 55 66 63 47 45 41 29 14 18 33 42 36 27 20 21 23 24 23 23 24 26 27 22 18 19 21 22 21 21 22 21 21 22 23 25 22 19 17 16 16 18 18 19 14 18
24 22 32 38 45 58 57 48 45 47 40 40 35 23 18 25 23 21 24 23 20 20 20 22 21 18 17 19 21 21 20 19 19 18 19 20 24 24 19 17 17 15 15 15 14 16 14 17 8
22 24 29 35 42 49 55 50 50 49 35 42 32 33 22 24 24 26 21 20 19 17 18 17 17 17 17 19 18 17 17 18 18 17 19 22 19 16 15 15 15 13 13 12 13 15 16 19 13
11 25 21 35 41 47 53 51 52 49 38 32 27 28 24 25 25 21 18 18 16 17 17 18 17 14 16 16 14 15 15 17 18 19 20 18 17 15 15 14 12 11 11 11 12 14 15 19 15

GFSSGP_500_spd_036.txt.gz
Wind_Speed
29 29 28 28 29 27 27 27 26 26 23 22 19 17 15 13 12 11 5 5 12 14 14 16 17 18 21 27 25 24 25 28 30 30 29 26 25 27 25 25 24 23 23 23 22 22 22 21 20
31 30 30 31 30 28 26 28 27 27 27 22 22 20 16 15 13 10 7 11 14 15 23 20 18 18 20 26 25 23 24 28 31 31 31 30 28 27 25 24 24 23 25 25 24 24 24 24 23
33 32 33 32 31 30 21 30 31 30 27 26 24 22 19 14 17 12 10 11 14 20 21 20 23 22 20 26 26 24 25 28 31 32 32 32 31 31 29 27 27 25 23 24 25 26 26 27 27
34 35 35 33 30 30 34 33 33 32 30 28 26 25 21 21 19 18 15 13 16 20 24 24 25 23 21 28 27 24 24 32 34 34 32 33 33 34 34 29 27 26 25 25 25 26 26 27 29
36 36 37 34 32 33 35 36 36 35 33 30 28 26 25 24 22 22 20 16 16 21 23 22 24 23 25 28 28 24 29 34 35 33 32 32 34 33 32 32 29 27 25 26 25 26 26 26 28
39 37 39 35 33 33 38 38 38 37 35 32 30 29 28 27 27 27 23 21 21 24 23 24 27 23 24 27 27 24 30 35 32 33 36 36 35 33 31 31 31 29 29 27 25 26 25 26 28
40 41 40 39 38 36 37 42 39 37 37 34 34 30 32 33 31 30 26 26 28 25 26 27 24 25 25 23 23 26 31 33 32 32 35 39 37 34 31 30 32 28 28 29 27 26 26 28 29
42 44 44 42 40 37 42 43 40 42 40 43 35 33 35 36 33 31 29 28 29 28 26 22 23 24 26 25 27 30 30 32 32 32 33 36 36 33 30 30 32 30 30 31 30 30 29 29 28
43 48 48 43 40 39 40 44 45 48 47 42 42 42 40 35 36 35 32 32 33 26 24 25 28 31 32 33 31 30 30 33 32 34 36 39 37 32 31 30 33 34 33 32 32 32 30 30 26
52 51 51 42 46 41 41 47 49 50 49 48 47 44 41 40 40 37 37 36 34 33 32 37 34 32 33 36 35 32 33 34 33 35 39 38 38 33 32 31 32 35 36 36 35 34 34 32 29
58 61 47 46 48 49 45 50 51 51 53 53 47 48 48 43 41 40 40 39 36 36 37 36 35 36 35 36 37 35 37 37 35 36 37 37 37 33 33 33 35 37 38 37 35 35 36 35 32
63 58 60 56 54 50 49 47 53 58 58 54 59 54 50 45 44 43 43 42 37 36 35 38 39 44 39 39 38 40 42 41 39 38 37 36 35 33 34 34 33 35 40 39 35 39 32 36 34
58 57 65 61 61 54 50 54 53 57 57 59 60 59 53 50 48 46 46 41 40 39 37 40 43 43 43 42 41 42 44 43 43 40 39 35 33 37 37 35 33 36 40 39 34 37 38 40 39
51 56 62 68 67 62 59 54 58 58 55 58 63 60 56 54 49 48 47 41 40 39 39 40 44 46 47 44 43 44 45 44 43 43 40 35 37 39 35 33 35 36 39 36 35 34 37 37 24
53 58 58 61 65 66 68 67 69 56 60 62 60 58 58 55 52 50 47 42 42 39 40 44 46 47 46 46 45 45 47 45 45 40 39 38 39 40 36 36 38 38 39 37 38 34 36 38 34
58 60 61 57 59 58 70 74 64 63 61 66 61 59 61 58 55 52 47 48 45 43 45 49 48 49 50 49 48 48 50 46 46 42 38 39 40 39 38 41 39 35 39 37 37 35 37 38 42
60 62 62 58 57 62 69 64 60 64 72 72 67 66 65 63 59 58 52 50 46 47 50 51 49 49 52 53 52 52 51 47 44 42 39 40 41 40 43 44 37 37 41 36 35 36 38 39 40
62 64 62 65 60 66 68 62 57 64 77 70 66 64 67 64 63 59 58 48 49 53 53 52 53 52 53 55 55 52 49 45 42 41 43 42 42 45 42 41 38 41 38 34 36 35 38 37 39
69 70 70 68 66 71 69 63 57 59 62 68 72 68 66 65 64 64 59 55 55 53 54 55 53 52 53 54 56 52 46 41 40 41 42 42 45 43 41 40 38 33 31 32 34 36 38 38 36
71 75 74 74 73 70 70 69 62 59 61 61 63 62 66 68 65 63 59 60 53 54 56 56 53 51 53 53 55 49 44 41 41 41 41 43 43 42 39 34 29 29 30 32 34 38 37 34 33
74 77 72 77 79 73 73 72 68 62 60 59 60 58 56 59 58 59 61 60 55 53 54 53 51 48 49 51 48 44 43 41 40 41 41 43 39 34 29 27 27 29 30 33 36 35 34 34 31
65 70 74 77 79 80 74 75 71 64 62 58 54 54 53 49 46 48 52 54 51 50 50 46 47 48 46 43 42 43 40 37 40 40 38 35 31 29 27 27 27 30 32 35 35 33 34 32 30
44 54 63 64 77 80 78 79 70 67 63 57 51 46 43 43 44 45 44 45 47 47 44 43 44 42 39 38 38 36 35 38 37 35 33 29 29 29 28 28 29 32 33 32 32 34 30 28 25
28 33 39 40 46 59 78 64 71 65 58 52 46 42 37 40 41 40 42 43 43 43 41 41 37 33 32 31 31 33 36 34 35 32 29 29 30 29 28 29 30 30 29 30 32 29 27 24 21
19 23 26 38 48 57 70 52 69 63 52 49 45 41 38 38 38 39 38 39 38 39 38 35 31 28 26 28 31 34 33 33 30 28 29 29 29 27 28 28 26 27 28 30 27 25 24 22 22
25 20 26 30 36 44 50 45 66 57 43 50 46 40 39 36 34 36 37 36 33 29 30 30 28 25 26 28 30 30 31 29 27 27 28 28 28 28 26 26 26 28 29 25 24 22 22 23 23
24 29 23 28 27 33 38 42 59 58 53 38 32 42 40 38 41 38 34 30 26 27 25 24 23 25 25 27 29 29 27 26 26 26 26 27 28 26 25 26 29 28 23 23 22 20 19 20 22
22 27 27 26 31 21 30 34 56 53 48 43 33 34 41 43 43 31 27 26 28 27 25 23 24 25 26 27 24 25 25 23 24 25 25 25 24 25 26 27 23 21 21 20 18 17 19 19 20
19 21 19 19 25 15 21 31 38 48 47 42 38 33 32 26 33 34 29 27 30 23 22 23 25 24 22 21 22 22 22 22 23 24 23 24 24 25 24 21 19 19 20 17 15 16 18 19 19
10 19 25 22 23 25 20 18 37 54 46 49 39 32 25 19 23 33 32 28 25 22 23 24 21 19 20 20 21 21 20 21 21 23 24 25 25 23 19 17 18 20 16 12 15 17 18 19 20

GFSSGP_500_spd_042.txt.gz
Wind_Speed
34 33 33 33 31 28 21 19 18 14 18 24 23 29 25 23 27 30 26 18 9 5 9 7 8 8 9 9 9 15 19 20 23 25 26 27 28 25 23 26 26 25 25 24 24 24 24 23 21
36 36 36 36 33 29 22 17 20 11 17 28 30 20 17 26 28 24 25 14 13 11 11 11 12 11 12 11 14 18 21 22 24 25 27 28 29 27 27 28 27 26 26 25 24 22 23 23 22
38 37 38 37 37 28 24 3 20 19 24 32 26 22 22 26 32 27 23 17 16 12 13 13 14 14 16 18 18 21 23 24 22 26 29 29 30 30 31 30 29 29 26 23 24 23 23 24 23
36 39 39 39 35 30 22 20 8 28 32 32 23 26 28 33 32 28 20 20 19 18 18 15 16 17 18 19 19 20 23 25 26 28 32 31 33 33 32 32 32 30 28 28 28 25 24 25 25
36 38 40 40 36 32 30 26 12 27 26 36 34 29 28 30 39 28 25 23 19 21 24 17 17 18 19 17 19 20 24 27 29 30 31 32 34 34 34 33 31 30 29 29 29 29 29 29 27
43 41 38 40 35 33 31 31 15 29 37 26 20 25 30 34 35 30 27 27 22 22 23 20 17 16 11 12 20 21 24 26 29 30 30 31 34 34 32 34 33 30 30 30 30 29 29 29 29
35 39 47 40 35 36 34 32 23 25 44 34 25 21 23 35 32 32 30 30 25 27 23 23 20 16 13 16 22 23 25 26 30 30 30 31 34 32 32 34 33 32 31 31 27 26 26 28 29
40 39 43 45 39 40 34 35 35 28 28 26 25 22 30 39 40 35 31 32 29 29 26 25 24 21 22 23 24 24 26 28 30 31 32 33 33 33 34 34 32 29 29 29 27 28 27 28 31
45 49 50 46 44 39 40 38 22 29 37 35 32 23 32 35 40 42 33 35 34 34 29 25 27 24 26 25 25 25 29 29 30 32 33 33 31 32 35 36 34 31 30 30 30 31 33 31 31
61 57 51 41 41 39 43 36 40 40 35 37 38 34 42 38 38 31 28 28 28 37 33 31 28 29 29 27 26 28 29 29 31 32 32 32 31 32 35 35 34 32 30 30 32 34 34 34 37
52 50 59 47 43 39 37 40 40 44 41 37 38 43 43 49 45 39 33 20 31 40 39 39 37 26 29 30 27 29 30 31 34 34 33 33 33 33 34 36 34 32 30 31 34 36 36 36 37
51 44 43 49 55 56 49 45 44 48 43 39 29 37 43 43 47 44 42 42 40 42 42 42 22 30 33 32 31 29 30 31 33 36 36 35 35 35 37 37 34 33 30 31 35 38 37 37 36
45 43 46 48 50 58 58 55 55 52 43 42 51 37 34 41 45 45 43 41 39 38 38 45 44 37 39 38 35 34 32 33 34 35 36 36 36 38 38 40 36 32 31 31 36 38 38 37 38
45 48 50 50 50 51 57 64 63 56 45 46 50 51 38 45 45 56 54 55 52 47 45 45 50 44 40 39 39 37 35 39 39 39 40 40 37 36 38 38 37 35 32 33 36 38 39 38 39
47 50 50 50 51 54 52 59 69 58 57 53 49 48 56 56 58 38 56 51 52 48 50 51 53 52 40 40 40 38 37 40 44 44 46 43 38 39 38 38 37 34 36 37 36 37 39 38 42
49 51 53 45 51 50 53 59 54 52 66 63 59 52 50 58 54 61 68 58 56 55 55 53 53 56 46 42 41 37 38 41 43 45 49 50 40 40 38 39 36 35 38 39 39 39 39 39 38
50 54 54 53 52 54 54 58 50 50 53 65 67 64 62 58 60 62 65 61 60 58 54 55 51 51 49 44 43 41 41 42 45 47 49 49 42 40 37 39 36 35 38 38 39 40 38 38 34
51 54 56 56 50 54 51 59 55 53 55 56 60 66 70 63 63 64 69 64 58 59 60 55 51 50 51 50 48 44 45 47 47 48 51 46 43 39 35 38 34 37 36 36 38 37 35 33 32
56 58 60 59 60 53 38 43 59 58 57 57 58 59 61 65 72 72 66 60 57 60 64 61 52 49 51 52 52 49 47 51 52 52 51 45 42 38 34 34 34 35 36 36 35 34 32 31 32
57 59 59 60 62 63 64 67 63 61 61 60 61 59 59 59 57 57 61 62 61 69 68 65 52 46 47 54 55 51 53 56 56 55 50 42 41 34 32 31 34 35 35 33 33 32 34 33 34
53 57 60 65 66 66 68 70 68 64 65 66 65 65 61 60 58 60 62 63 67 73 72 69 50 52 50 54 57 55 59 59 55 55 46 43 40 31 29 31 33 34 32 32 32 34 35 35 34
52 50 56 58 64 68 64 71 71 65 65 68 65 64 62 62 58 60 63 63 64 75 74 71 64 57 57 53 57 55 58 57 56 54 45 40 34 29 28 31 33 32 31 32 32 34 34 34 31
44 41 44 49 58 58 62 62 71 69 70 71 68 66 66 64 60 58 60 61 57 54 56 60 69 64 56 58 61 60 61 54 54 49 41 36 32 27 29 30 32 31 32 33 32 33 31 30 31
35 41 47 45 40 54 64 49 71 69 71 69 70 60 58 70 61 58 57 56 53 52 52 49 54 53 52 51 51 52 49 48 47 43 38 34 28 28 28 30 31 32 33 32 32 30 30 30 32
25 23 31 31 35 45 44 35 49 65 65 67 65 57 46 58 60 63 58 55 53 50 49 51 47 44 41 42 42 39 40 41 44 37 33 28 27 28 28 29 31 32 31 32 30 30 31 32 30
27 19 34 28 27 33 30 40 39 42 53 56 67 65 47 59 66 63 56 51 50 48 45 43 47 48 41 39 36 38 41 39 36 32 31 28 27 28 27 29 30 29 29 28 29 32 31 26 28
15 22 26 22 29 34 34 37 43 44 49 54 56 47 43 55 63 60 56 47 49 48 42 40 41 41 40 38 37 38 37 36 29 30 29 27 28 26 27 28 28 26 25 28 31 28 26 25 28
17 19 26 29 32 36 31 21 16 14 23 27 40 41 37 29 56 63 53 47 48 42 40 39 39 38 37 37 36 34 31 30 28 29 28 27 26 25 27 27 26 24 25 28 27 24 25 27 26
14 17 25 26 30 31 25 18 9 32 29 31 30 19 33 44 52 47 46 49 43 41 39 38 39 36 35 33 32 29 28 27 28 26 24 23 22 25 25 24 24 25 27 25 23 22 25 25 23
20 16 31 25 25 25 31 24 26 23 31 43 40 39 36 41 50 44 42 44 42 42 40 35 33 32 32 30 27 27 26 24 23 22 21 21 22 21 20 23 25 24 22 20 22 23 23 21 22

GFSSGP_500_spd_045.txt.gz
Wind_Speed
35 36 33 32 31 26 21 17 18 18 19 3 12 22 30 34 35 38 33 17 10 11 8 8 8 8 7 8 7 10 14 16 16 16 17 20 20 22 23 23 23 23 23 22 20 21 20 19 19
36 38 37 35 33 28 22 20 12 11 11 8 22 31 35 38 35 36 24 12 10 11 11 11 11 11 10 8 10 11 14 15 14 17 18 21 21 23 24 25 26 25 23 21 19 21 19 17 18
35 40 40 38 36 28 22 23 25 17 15 18 32 34 34 37 36 34 25 15 10 12 12 14 16 14 13 12 10 9 11 15 19 21 21 21 22 25 27 27 26 25 24 22 22 21 19 19 20
30 35 40 39 35 31 22 28 23 16 13 24 32 30 30 37 36 31 24 14 11 16 16 19 21 21 19 15 9 6 10 14 18 21 23 24 24 27 27 25 25 25 24 23 23 22 23 22 21
32 30 37 38 35 32 25 26 24 25 10 27 38 34 33 37 34 32 19 21 23 21 19 21 22 22 18 11 5 7 12 17 20 22 25 26 26 27 26 24 25 26 25 23 23 22 22 22 23
46 40 38 36 37 35 33 34 34 23 8 18 33 24 33 36 31 32 30 27 29 25 24 23 23 24 17 12 11 14 18 21 23 25 27 28 28 26 25 26 28 29 27 25 23 21 21 22 22
36 45 47 44 41 42 36 37 34 29 21 30 23 18 18 30 35 32 33 32 31 30 27 25 27 25 21 16 17 19 19 22 25 26 28 29 28 26 25 27 28 28 28 27 24 21 21 23 23
44 44 46 47 48 37 39 45 39 29 31 36 29 25 17 23 29 29 33 35 34 32 30 28 32 27 23 21 19 20 21 23 26 27 27 28 28 28 27 28 30 30 28 27 25 23 23 25 26
47 53 56 47 44 44 36 41 49 39 36 33 41 29 22 34 37 38 36 40 38 35 35 31 31 27 25 22 21 22 23 23 25 27 27 29 28 28 27 29 32 33 28 28 27 26 26 27 28
46 49 49 42 39 38 37 45 40 49 46 48 39 36 39 36 42 36 43 36 36 39 43 31 31 29 29 24 20 22 22 23 24 27 27 29 30 29 29 29 31 33 29 28 27 28 28 29 31
43 41 44 49 46 41 39 39 49 45 49 48 45 38 36 42 41 40 33 39 36 27 30 33 33 34 32 22 20 23 24 25 26 28 27 30 31 32 33 30 31 33 29 27 28 29 29 30 32
43 42 41 40 54 57 48 45 45 59 52 46 38 46 39 32 45 42 37 38 35 38 39 48 35 36 26 10 24 25 27 27 28 28 28 29 33 34 35 33 31 33 30 28 29 28 30 31 33
43 41 44 43 48 52 55 57 48 45 54 60 46 40 51 49 38 42 46 42 47 45 40 40 33 23 28 31 26 26 28 30 30 30 29 30 33 35 38 35 32 31 30 29 30 29 29 30 31
41 44 44 45 42 47 51 58 66 56 53 51 43 43 51 52 50 44 47 50 50 52 47 45 28 22 34 38 35 29 31 33 31 30 31 31 33 35 37 36 37 30 31 30 30 30 29 28 32
41 43 44 43 43 45 52 54 51 46 62 61 47 44 51 53 55 43 52 53 53 55 62 58 37 42 38 41 44 38 36 37 33 32 33 34 34 35 37 36 37 33 31 30 29 30 30 28 33
45 46 46 40 44 44 48 56 45 44 47 54 63 49 51 57 56 54 52 48 55 59 61 46 35 48 44 45 46 45 41 42 37 36 37 36 35 38 39 37 35 32 31 30 29 31 29 29 31
47 46 48 45 45 47 48 52 44 44 49 51 51 56 59 56 60 61 57 55 59 51 43 50 51 53 55 48 46 44 43 42 40 41 44 42 38 41 42 40 36 31 32 31 31 31 28 29 31
46 48 50 48 48 50 50 54 52 49 51 53 53 55 58 60 64 58 56 58 61 61 57 56 57 63 61 55 50 46 44 42 41 42 45 46 44 43 43 42 38 32 31 30 32 30 27 30 31
48 50 54 53 56 58 61 61 56 57 59 58 55 55 58 59 62 60 59 57 62 64 64 64 69 65 60 58 52 48 42 42 39 46 47 48 47 45 44 43 40 33 30 30 31 28 28 30 33
50 53 54 54 54 57 59 63 59 58 59 60 61 59 58 59 56 60 67 62 61 64 65 66 66 65 60 52 51 47 44 41 44 47 50 49 47 46 47 44 40 34 31 30 30 28 28 31 34
48 50 52 56 56 58 62 63 62 59 59 60 61 61 63 62 59 56 58 59 61 67 69 71 69 69 60 52 49 43 45 47 48 51 52 46 47 47 47 41 38 34 31 30 29 28 30 32 31
50 48 52 56 58 61 55 67 64 60 59 62 63 64 61 60 58 57 57 57 59 61 60 59 60 56 49 44 43 44 47 50 55 56 57 47 47 47 44 39 36 31 29 30 28 30 31 30 30
47 47 53 56 60 62 63 66 64 62 63 65 65 66 65 61 59 58 53 52 53 58 58 56 53 50 44 38 36 45 54 55 54 55 54 48 50 45 41 36 33 30 30 29 29 31 30 30 30
42 39 43 47 47 59 57 58 64 64 61 61 67 69 65 64 60 61 59 53 47 52 54 53 49 49 45 36 32 36 41 48 45 48 45 42 40 38 36 33 31 30 30 28 28 29 29 28 29
31 35 32 30 34 46 38 38 57 58 57 61 62 65 64 66 65 65 62 61 52 51 51 53 48 45 42 38 36 32 33 37 39 40 35 34 33 33 32 31 30 30 29 28 27 27 25 27 29
19 18 25 29 27 26 28 30 41 49 43 49 60 64 57 58 60 62 62 58 55 50 52 51 50 44 39 38 38 37 37 38 36 32 29 31 29 30 31 30 30 28 27 27 26 24 25 27 26
29 19 22 25 26 30 25 25 21 31 45 46 53 56 60 58 56 57 58 56 53 48 43 49 47 42 37 38 41 44 40 40 36 30 29 27 28 29 30 31 28 25 26 25 24 25 26 25 24
25 23 24 27 29 28 29 32 31 27 37 39 49 49 47 44 53 56 53 52 50 48 44 40 39 40 38 38 39 39 39 38 33 30 27 27 28 28 28 26 23 25 24 23 24 24 24 23 24
19 22 27 24 24 29 33 25 27 23 33 36 35 48 40 45 49 56 51 54 49 44 40 41 33 37 37 38 37 36 34 32 29 27 26 25 26 25 22 21 22 22 23 25 24 21 22 23 23
26 32 28 24 21 23 25 28 27 29 34 34 33 37 46 51 48 50 52 46 44 44 40 39 35 36 38 39 34 31 31 28 25 24 24 24 22 20 20 19 19 20 20 21 19 20 20 22 20

GFSSGP_500_spd_048.txt.gz
Wind_Speed
42 40 39 37 32 28 23 21 24 20 19 24 21 22 15 16 21 25 28 24 13 10 6 3 5 7 8 9 12 13 14 13 10 10 13 14 15 17 18 19 20 18 17 18 18 18 18 18 18
43 42 41 38 34 29 23 24 22 26 29 33 24 25 16 23 28 31 36 33 18 15 8 6 6 8 9 12 14 14 12 11 12 12 13 15 17 19 21 20 18 16 17 17 17 18 19 19 19
31 42 41 42 35 30 26 26 33 29 26 24 24 20 22 26 29 35 39 36 21 15 10 8 9 11 14 15 13 12 10 10 11 13 15 17 17 18 19 19 18 18 19 18 18 18 18 18 18
27 31 42 42 34 34 27 29 33 35 31 27 24 17 28 34 35 39 39 37 34 18 13 12 16 14 16 17 12 7 7 10 14 16 17 17 18 18 17 18 18 18 19 18 18 18 18 19 20
46 32 34 39 37 33 30 33 41 41 37 29 27 26 31 35 33 34 38 30 29 23 17 15 17 16 16 17 11 9 9 12 15 17 19 21 21 20 19 18 19 20 19 18 17 17 18 18 19
51 51 39 32 35 36 34 43 44 47 41 32 27 23 36 38 36 33 35 27 23 20 20 18 18 20 18 18 13 13 15 17 17 21 23 23 24 22 20 19 20 22 23 21 19 19 17 18 19
41 46 52 37 34 36 31 39 35 37 39 38 35 21 31 38 35 33 28 31 31 29 26 24 22 23 22 22 21 19 17 18 19 20 23 24 24 23 23 23 24 25 25 22 21 20 19 19 20
46 50 50 51 39 38 31 42 41 41 37 29 26 32 36 37 28 33 36 33 30 31 28 27 26 25 27 24 24 20 18 18 19 20 22 25 24 25 25 26 26 25 26 24 23 23 24 22 22
42 42 40 46 48 38 35 44 46 43 44 40 32 34 36 31 28 26 31 37 34 33 33 31 28 27 29 27 25 20 18 17 17 18 22 24 24 26 26 26 26 25 26 25 24 24 26 23 24
42 40 34 40 42 40 37 51 44 52 48 42 37 39 36 31 27 31 32 31 36 35 34 30 32 30 31 29 28 21 18 18 18 19 22 24 23 26 27 28 28 26 26 26 25 25 27 25 25
46 43 38 33 45 46 40 43 49 46 56 47 43 45 43 34 31 33 33 37 37 37 41 33 32 36 37 33 25 19 18 19 19 19 22 26 25 26 28 29 31 29 28 28 27 26 27 25 25
42 43 43 40 41 51 48 44 49 53 46 56 46 49 48 51 37 35 42 42 42 39 36 33 32 37 36 33 26 13 19 23 23 22 23 26 26 27 28 32 32 31 30 29 28 27 27 25 24
41 42 45 42 42 44 54 55 49 52 60 48 52 56 49 50 49 43 43 44 48 43 39 37 37 36 42 37 27 18 17 21 26 25 26 27 28 26 27 31 34 34 33 30 30 28 28 26 24
40 42 43 41 40 42 47 51 63 50 47 58 60 49 53 53 56 59 55 48 36 50 48 43 43 42 50 44 20 21 21 25 28 28 29 29 30 29 30 33 37 38 36 32 30 29 30 26 25
40 43 44 44 42 43 44 48 44 48 59 55 62 66 50 51 58 61 60 57 45 45 48 45 47 43 46 52 20 23 24 29 29 30 29 32 32 30 32 34 37 38 38 33 31 29 31 26 25
41 42 42 41 44 45 44 47 40 43 53 54 64 60 52 53 59 62 61 60 58 52 49 49 50 52 57 63 32 21 26 31 33 33 30 33 35 32 33 34 36 37 39 37 34 30 31 26 25
43 43 46 46 47 50 52 49 44 45 53 53 53 67 64 54 61 62 65 58 58 58 54 53 53 54 55 53 43 31 30 37 39 38 34 34 36 34 33 34 34 39 38 40 36 32 31 27 26
42 45 45 49 51 54 54 50 49 51 55 56 55 56 60 54 63 63 64 61 61 61 57 53 54 53 51 42 47 48 42 43 45 41 36 36 37 36 36 38 36 40 40 40 38 33 32 27 27
43 46 48 50 52 55 57 54 53 54 56 57 57 59 60 54 63 66 64 66 64 64 61 62 63 61 58 57 56 53 50 50 47 41 39 39 41 40 38 38 38 41 41 41 37 35 33 28 29
43 46 49 49 51 54 56 57 51 53 56 57 59 59 59 57 59 63 72 67 71 69 67 64 63 63 62 59 56 57 54 52 50 46 42 42 45 44 44 44 43 45 44 41 36 37 33 30 31
41 46 51 53 54 56 59 58 56 56 59 58 57 58 59 59 59 59 66 70 71 72 72 67 66 64 57 55 58 59 56 48 50 49 44 46 47 45 47 48 49 46 46 40 36 37 33 31 31
41 43 48 49 53 56 54 62 58 58 61 62 61 60 60 61 60 60 59 64 68 68 71 71 67 65 61 57 53 43 38 39 43 47 49 50 49 47 49 50 50 42 42 37 35 36 32 30 30
38 40 44 49 54 58 56 62 58 57 60 59 63 62 63 62 63 60 59 55 62 64 67 69 70 64 59 53 45 34 33 36 47 52 53 52 49 43 47 49 42 39 37 33 36 34 28 29 31
37 41 46 47 47 55 54 55 59 60 59 57 59 65 67 66 65 64 61 59 55 58 63 64 62 58 56 53 43 36 35 34 33 36 44 46 43 43 44 43 36 36 33 33 35 30 28 29 29
27 33 40 40 35 38 37 48 57 60 59 64 66 63 65 66 68 64 61 60 59 56 56 57 60 57 53 48 40 34 34 36 38 38 33 32 35 37 39 33 35 32 31 32 32 27 28 28 26
29 30 31 37 28 22 23 36 34 45 43 55 64 67 64 63 65 65 65 63 59 57 54 55 55 54 53 49 41 34 32 36 40 37 30 33 34 36 32 31 32 30 31 31 29 26 28 26 27
31 32 29 37 35 35 20 20 30 27 33 35 45 56 60 58 61 61 64 63 61 58 53 47 51 49 47 43 40 36 35 37 40 37 35 34 38 31 30 30 30 28 30 28 26 27 25 25 28
30 34 32 30 31 33 27 29 26 30 36 37 37 42 51 58 54 55 56 58 60 59 56 49 43 44 43 41 38 37 37 37 35 34 35 36 33 30 29 28 27 28 27 25 25 26 26 28 27
29 32 32 30 30 37 35 29 24 25 29 34 38 43 43 50 51 50 53 54 55 56 56 52 42 39 39 39 39 37 37 36 34 33 33 33 31 29 28 26 26 25 25 22 23 27 28 26 24
30 29 33 34 34 27 29 29 25 24 22 31 38 40 45 46 49 50 50 52 53 52 51 49 47 44 43 39 37 38 38 37 34 30 30 30 29 27 26 26 25 23 21 21 24 23 23 23 21